Rexburg, ID

11:29 PM MDT on June 28, 2017 (GMT -0600)
Rexburg-Madison County

Weather History for KRXE - March, 2013

Change the Weather History Date:

Friday, March 29, 2013

  Actual Average Record
Temperature  
Mean Temperature 46 °F 39 °F  
Max Temperature 59 °F 50 °F 60 °F (2015)
Min Temperature 33 °F 29 °F 14 °F (2008)
Degree Days  
Heating Degree Days 19 26  
Month to date heating degree days 952 906  
Since 1 July heating degree days 6619 6879  
Cooling Degree Days 0 0  
Month to date cooling degree days 0 0  
Year to date cooling degree days 0 0  
Moisture  
Dew Point 34 °F    
Average Humidity 66    
Maximum Humidity 92    
Minimum Humidity 40    
Precipitation  
Precipitation 0.09 in 0.04 in 0.34 in (1982)
Month to date precipitation 0.86 0.96  
Year to date precipitation 2.44 2.53  
Sea Level Pressure  
Sea Level Pressure 30.13 in    
Wind  
Wind Speed 6 mph (SE)    
Max Wind Speed 23 mph    
Max Gust Speed 28 mph    
Visibility 10 miles    
Events Rain , Thunderstorm    
T = Trace of Precipitation, MM = Missing Value Source: NWS Daily Summary

Daily Weather History Graph

Daily Weather History Graph

Search for Another Location

Airport or City:

Trip Planner

Search our weather history database for the weather conditions in past years. The results will help you decide how hot, cold, wet, or windy it might be!

Date:

Astronomy

Mar. 29, 2013 Rise Set
Actual Time 7:13 AM MDT 7:50 PM MDT
Civil Twilight 6:44 AM MDT 8:19 PM MDT
Nautical Twilight 6:10 AM MDT 8:54 PM MDT
Astronomical Twilight 5:34 AM MDT 9:29 PM MDT
Moon 11:02 PM MDT 8:19 AM MDT
Length of Visible Light 13h 35m
Length of Day
12h 37m
Waning Gibbous, 93% of the Moon is Illuminated
Mar 29
Waning Gibbous
Apr 2
Last Quarter
Apr 10
New
Apr 18
First Quarter
Apr 25
Full

Hourly Weather History & Observations

Time (MDT) Temp. Windchill Dew Point Humidity Pressure Visibility Wind Dir Wind Speed Gust Speed Precip Events Conditions
12:53 AM 36.0 °F 33.3 °F 28.9 °F 76% 30.08 in 10.0 mi ENE 3.5 mph - N/A   Mostly Cloudy
1:53 AM 36.0 °F 31.1 °F 30.0 °F 79% 30.08 in 10.0 mi ENE 5.8 mph - N/A   Clear
2:53 AM 36.0 °F - 30.0 °F 79% 30.08 in 10.0 mi Calm Calm - N/A   Mostly Cloudy
3:53 AM 34.0 °F - 28.9 °F 82% 30.09 in 10.0 mi Calm Calm - N/A   Scattered Clouds
4:53 AM 34.0 °F 31.0 °F 28.0 °F 79% 30.09 in 10.0 mi NNE 3.5 mph - N/A   Overcast
5:53 AM 34.0 °F 31.0 °F 28.9 °F 82% 30.11 in 10.0 mi NE 3.5 mph - N/A   Overcast
6:53 AM 34.0 °F 31.0 °F 30.0 °F 85% 30.12 in 10.0 mi NNE 3.5 mph - N/A   Overcast
7:53 AM 33.1 °F - 28.9 °F 85% 30.15 in 10.0 mi Calm Calm - N/A   Clear
8:53 AM 37.9 °F 35.5 °F 30.9 °F 76% 30.16 in 10.0 mi East 3.5 mph - N/A   Partly Cloudy
9:53 AM 46.0 °F 39.6 °F 35.1 °F 66% 30.15 in 10.0 mi SSW 15.0 mph - N/A   Partly Cloudy
10:53 AM 50.0 °F - 36.0 °F 59% 30.16 in 10.0 mi South 15.0 mph - N/A   Mostly Cloudy
11:53 AM 52.0 °F - 35.1 °F 53% 30.17 in 10.0 mi SW 11.5 mph - N/A   Scattered Clouds
12:53 PM 52.0 °F - 34.0 °F 50% 30.17 in 10.0 mi SSW 10.4 mph 26.5 mph N/A   Clear
2:27 PM 55.4 °F - 35.6 °F 47% 30.13 in 10.0 mi Variable 5.8 mph - N/A Thunderstorm Scattered Clouds
2:42 PM 55.4 °F - 37.4 °F 51% 30.13 in 10.0 mi SW 16.1 mph 20.7 mph N/A   Mostly Cloudy
2:53 PM 57.0 °F - 35.1 °F 44% 30.11 in 10.0 mi SSW 12.7 mph 25.3 mph N/A   Scattered Clouds
3:53 PM 57.9 °F - 34.0 °F 41% 30.10 in 10.0 mi WSW 17.3 mph 23.0 mph N/A   Scattered Clouds
4:53 PM 55.9 °F - 34.0 °F 44% 30.11 in 10.0 mi SSW 16.1 mph 23.0 mph N/A   Overcast
5:53 PM 53.1 °F - 37.9 °F 57% 30.13 in 10.0 mi Calm Calm - 0.00 in Rain Light Rain
6:53 PM 48.9 °F - 42.1 °F 77% 30.14 in 5.0 mi Calm Calm - 0.03 in Rain Light Rain
7:50 PM 46.4 °F 45.2 °F 37.4 °F 71% 30.12 in 10.0 mi SE 3.5 mph - 0.06 in Thunderstorm Mostly Cloudy
7:53 PM 46.0 °F 44.8 °F 39.0 °F 76% 30.14 in 10.0 mi SE 3.5 mph - 0.06 in Thunderstorm Scattered Clouds
8:05 PM 46.4 °F 44.3 °F 37.4 °F 71% 30.11 in 10.0 mi SE 4.6 mph - N/A   Mostly Cloudy
8:53 PM 46.0 °F 43.1 °F 37.0 °F 71% 30.13 in 10.0 mi SE 5.8 mph - N/A   Partly Cloudy
9:53 PM 43.0 °F - 37.0 °F 80% 30.13 in 10.0 mi Calm Calm - N/A   Mostly Cloudy
10:53 PM 37.9 °F 32.7 °F 35.1 °F 89% 30.15 in 10.0 mi North 6.9 mph - N/A   Partly Cloudy
11:53 PM 37.9 °F 35.5 °F 34.0 °F 86% 30.15 in 10.0 mi ENE 3.5 mph - N/A   Clear